CW6467 Weather Reports


time (UTC)temp
C
wind
direction
speed
KPH
gust
KPH
rain 1hr
cm
rain 24hr
cm
rain mn
cm
humidity
%
barometer
mb
20210723145828 27 190 3.2 9.7 0.00 0.05 0.05 73 987.9
20210723142828 25 225 3.2 8.0 0.00 0.05 0.05 82 988.0
20210723135827 24 233 3.2 4.8 0.00 0.05 0.05 92 987.9
20210723132828 23 202 0.0 4.8 0.00 0.05 0.05 99 988.0
20210723125828 22 190 0.0 0.0 0.00 0.05 0.05 99 987.8
20210723122828 21 190 1.6 1.6 0.00 0.05 0.05 99 988.1
20210723115828 20 190 0.0 0.0 0.00 0.05 0.05 99 987.7
20210723112828 20 190 0.0 0.0 0.00 0.05 0.05 99 988.1
20210723105827 20 190 0.0 0.0 0.00 0.05 0.05 98 988.0
20210723102828 21 190 0.0 0.0 0.00 0.05 0.05 98 987.7
20210723095828 21 190 0.0 0.0 0.00 0.05 0.05 98 987.2
20210723092757 21 190 0.0 0.0 0.00 0.05 0.05 98 987.2
20210723085828 22 190 0.0 3.2 0.00 0.05 0.05 98 987.5
20210723082758 22 190 1.6 3.2 0.00 0.05 0.05 97 987.4
20210723075827 22 190 0.0 3.2 0.00 0.05 0.05 97 987.6
20210723072758 22 190 0.0 3.2 0.03 0.05 0.05 96 987.6
20210723065828 22 221 0.0 1.6 0.05 0.05 0.05 96 987.6
20210723062828 23 209 3.2 3.2 0.03 0.03 0.03 94 987.8
20210723055828 22 189 3.2 3.2 0.00 0.00 0.00 94 987.9
20210723052828 23 265 0.0 3.2 0.00 0.00 0.00 93 988.1
20210723045828 23 307 0.0 1.6 0.00 0.00 0.00 92 988.1
20210723042828 23 39 0.0 1.6 0.00 0.00 0.00 92 988.1
20210723035828 23 9 0.0 3.2 0.00 0.00 0.00 92 987.9
20210723032828 23 286 0.0 3.2 0.00 0.00 0.00 92 987.8
20210723025828 23 281 0.0 1.6 0.00 0.00 0.00 90 987.9
20210723022828 23 281 0.0 1.6 0.00 0.00 0.00 89 987.6
20210723015828 24 290 0.0 1.6 0.00 0.00 0.00 88 987.4
20210723012828 25 290 0.0 0.0 0.00 0.00 0.00 86 987.4
20210723005828 25 290 0.0 1.6 0.00 0.00 0.00 82 987.5
20210723002828 26 273 0.0 1.6 0.00 0.00 0.00 79 987.5
20210722235828 27 281 1.6 3.2 0.00 0.00 0.00 75 987.7
20210722232828 28 231 0.0 3.2 0.00 0.00 0.00 72 987.6
20210722225828 28 26 1.6 3.2 0.00 0.00 0.00 71 987.7
20210722222828 28 245 1.6 8.0 0.00 0.00 0.00 71 987.8
20210722215828 28 210 0.0 6.4 0.00 0.00 0.00 69 988.0
20210722212828 29 66 1.6 6.4 0.00 0.00 0.00 66 987.9
20210722205828 29 236 1.6 6.4 0.00 0.00 0.00 62 988.1
20210722202828 29 211 1.6 9.7 0.00 0.00 0.00 66 988.2
20210722195828 29 191 3.2 9.7 0.00 0.00 0.00 65 988.6
20210722192828 27 207 0.0 6.4 0.00 0.00 0.00 72 988.6
20210722185828 27 200 4.8 8.0 0.00 0.00 0.00 74 988.7
20210722182828 27 146 0.0 8.0 0.00 0.03 0.00 75 989.1
20210722175828 28 50 1.6 6.4 0.00 0.25 0.00 72 989.1
20210722172828 27 247 0.0 8.0 0.00 0.25 0.00 72 989.5
20210722165828 26 219 4.8 9.7 0.00 0.46 0.00 75 989.7
20210722162828 25 153 1.6 9.7 0.00 0.48 0.00 75 990.0
20210722155828 25 243 3.2 6.4 0.00 0.89 0.00 77 990.3
20210722152828 23 29 3.2 8.0 0.00 0.89 0.00 79 990.2